Location: *
(46.1866°S, 178.5290°W)
Time: 17:10:59
(UTC+00:00)

Cosmos 1242 Rocket - Pass Details

Date: 19 May 2021
Orbit: 446 x 484 km, 81.2° (Epoch: 17 June)

Event Time Altitude Azimuth Distance (km) Brightness Sun altitude
Rises 04:56:04 0° 176° (S) 2,601 6.0 -5.2°
Reaches altitude 10° 04:58:47 10° 156° (SSE) 1,710 4.9 -5.7°
Maximum altitude 05:01:21 17° 113° (ESE) 1,304 4.1 -6.1°
Drops below altitude 10° 05:03:53 10° 69° (ENE) 1,689 4.9 -6.5°
Sets 05:06:32 0° 49° (NE) 2,556 6.0 -6.9°
